CAPE
2213 1867 2090 2527 2414 2562 2689 3223 3461 77 0 390 821 2372 2719 3220 3180 3165 3145 2549 1713 2614 3087 2835 2364 2632 2576 2220 1944 1636 1576 1260 1351 1488 1539 1238 1776 1924 370 473 1 0 2
2245 1711 2007 1716 2346 2406 2345 2184 3126 381 0 0 1976 2552 2977 2875 2934 3212 2945 2225 2125 2252 2142 2621 2986 1199 2773 2735 2681 1893 2007 2253 2117 1290 1869 1937 1667 1029 0 362 813 280 1
2022 1713 2078 2538 2553 2350 2333 2452 2826 2797 2442 2764 3586 3194 3010 2743 3175 2998 2937 2745 2831 1804 777 1203 2005 2632 1731 2248 2563 2566 1484 2047 1892 1316 1460 1395 1156 1227 1016 1213 930 1 5
1788 1734 2448 2644 2759 2443 2663 2386 2697 2907 2540 2875 2865 3098 3003 3120 3028 2494 2377 2761 3024 2260 2129 1874 2279 2326 1561 2098 1832 2093 1693 2332 1393 1609 1381 1017 967 950 949 460 157 77 2
1470 2221 2943 2378 2988 2421 2649 2940 2592 2710 2729 2636 2628 2547 2600 2612 1942 2534 2701 2704 2157 2340 2414 2307 2342 1956 970 1137 1661 1861 2164 1712 1881 1436 1315 1193 846 647 352 279 220 670 346
986 54 1465 969 1902 2424 2508 3129 2831 2770 2658 2865 2660 2656 2747 2324 1508 1008 1830 2212 2495 2331 1800 2018 2628 1409 801 535 338 189 270 1881 1939 1253 1244 1103 727 791 413 568 663 453 324
1034 910 717 1940 2094 2022 2413 2831 2725 2811 2302 2854 2625 2608 2427 2420 1564 525 356 1947 2007 2188 2409 2456 2321 1383 1365 1655 12 0 0 0 0 913 970 1124 1086 102 195 134 147 146 130
1179 839 2106 2489 2795 2700 2641 2987 3158 3187 2977 2913 2728 2557 2436 2339 1900 779 518 2067 2031 1984 2096 2318 2552 2365 1656 1732 1122 809 558 0 0 19 118 0 0 0 36 90 191 186 112
1402 1202 1289 1786 2147 2693 2579 2743 3127 2712 2747 2799 2985 2781 2492 2552 1717 183 14 1122 1528 1841 2043 1961 1254 2116 57 36 1165 1362 0 0 0 0 0 0 0 0 0 2 10 65 70
1661 1866 2050 2212 2359 2159 2435 2476 2740 2560 2504 2226 2528 2662 2503 2529 1861 75 0 1360 1897 1518 1774 0 0 22 0 0 472 1041 468 0 0 0 0 0 0 0 0 0 0 0 0
1555 1819 2002 2259 2006 2070 2375 2611 2685 2654 2387 2366 2128 2234 2100 1918 2027 0 0 1321 1419 1223 1449 583 0 1 0 0 0 61 376 0 0 0 0 0 0 0 0 0 0 0 0
1463 1667 1709 1935 1650 1450 1787 2049 2267 2356 2316 2148 2104 2024 1851 1432 893 0 1 1 171 1450 714 1 1 1 0 0 0 0 0 0 0 0 0 0 0 0 0 0 0 0 0
1363 1580 1466 1097 801 674 602 814 1225 744 893 443 969 1329 1186 41 2 4 3 1 1 3 4 0 1 0 0 0 0 0 0 0 0 0 0 0 0 0 0 0 12 8 4
1530 1402 1031 693 226 2 2 2 4 48 422 139 37 1 2 2 4 3 1 1 0 1 1 1 0 0 0 0 1 0 1 5 3 0 0 0 0 0 7 2 30 11 3
1096 1236 692 238 73 0 0 1 1 3 1 3 31 5 3 1 4 2 1 2 2 1 0 1 0 0 1 0 0 0 0 0 1 0 0 0 0 0 0 0 0 0 8
1271 806 203 19 2 1 0 1 1 0 0 1 2 0 0 0 2 2 2 1 1 0 1 0 1 1 0 0 0 0 0 0 0 0 0 0 0 0 0 0 0 0 13
621 360 1 1 0 3 2 2 3 1 1 1 1 1 0 1 1 1 1 2 0 0 0 1 0 0 0 0 0 0 0 0 0 0 0 0 0 0 0 0 0 0 0
4 0 0 0 4 6 5 5 5 4 1 1 0 0 1 1 1 1 0 0 0 2 2 1 1 0 0 0 0 0 0 0 0 0 0 0 0 0 0 0 0 0 0
6 1 0 0 10 2 4 4 4 3 1 1 0 0 0 1 0 0 0 0 0 0 0 0 0 0 0 0 0 0 0 0 0 0 0 0 0 0 0 0 0 0 0
2 0 0 4 3 4 2 3 5 5 3 2 1 1 0 0 0 0 0 0 0 0 0 0 2 0 0 0 0 0 0 0 0 0 0 0 0 0 0 0 0 0 0
18 0 11 7 148 18 0 0 6 7 5 2 0 0 0 0 0 0 0 0 0 1 0 0 0 0 0 0 0 0 0 0 0 0 0 0 0 0 0 0 2 7 0
1 4 30 78 12 99 75 1 0 3 3 0 0 0 0 0 0 1 5 0 0 0 0 0 0 0 0 0 2 2 0 0 0 2 7 2 2 2 0 4 11 16 23
1 2 2 4 0 0 0 0 0 0 2 0 0 0 0 0 26 13 44 25 6 1 0 0 5 9 10 16 41 43 27 7 0 10 27 19 11 14 9 17 18 21 0
1 1 1 0 0 0 0 0 0 0 0 0 0 4 3 0 3 8 3 5 12 13 14 39 43 40 53 52 51 35 47 3 0 0 0 10 13 0 13 10 15 11 6
0 0 0 0 0 0 0 0 0 4 3 8 15 17 19 12 20 15 16 26 45 51 45 48 61 71 89 89 39 13 0 0 0 0 0 0 0 0 0 0 14 22 20
0 0 0 0 0 0 0 22 9 3 3 0 10 0 6 23 15 53 61 65 60 61 42 58 57 35 32 39 55 0 0 0 0 0 32 25 17 18 15 6 8 6 22
CIN
-4 -14 -15 -4 -5 -9 -4 -3 -7 -168 -0 -100 -83 -29 -7 -3 -6 -6 -10 -7 -20 -17 -10 -6 -10 -6 -19 -31 -46 -55 -45 -63 -37 -51 -65 -129 -53 -46 -148 -75 -58 -0 -0
-8 -29 -11 -29 -4 -1 -4 -6 -9 -206 -0 -0 -16 -13 -7 -3 -4 -6 -1 -6 -16 -16 -11 -20 -5 -2 -16 -20 -25 -46 -45 -46 -25 -33 -18 -22 -32 -82 -0 -38 -42 -68 -0
-19 -20 -15 -6 -2 -5 -10 -7 -3 -15 -17 -7 -3 -10 -9 -9 -5 -7 -9 -12 -5 -15 -94 -82 -10 -10 -34 -15 -11 -24 -46 -31 -32 -39 -24 -55 -55 -47 -50 -39 -35 -42 -120
-35 -25 -11 -13 -6 -3 -5 -25 -7 -13 -12 -7 -6 -5 -2 -2 -5 -13 -8 -11 -6 -14 -16 -30 -17 -28 -45 -21 -7 -5 -21 -7 -24 -14 -27 -39 -36 -41 -52 -79 -99 -138 -0
-91 -19 -32 -43 -12 -10 -13 -9 -11 -9 -5 -10 -5 -4 -3 -4 -1 -7 -7 -18 -25 -17 -15 -22 -26 -28 -94 -45 -26 -13 -5 -11 -10 -11 -9 -12 -21 -33 -50 -61 -56 -9 -3
-83 -271 -55 -97 -16 -10 -18 -5 -9 -4 -4 -5 -3 -2 -3 -0 -4 -7 -25 -21 -15 -16 -35 -34 -11 -40 -68 -138 -129 -169 -141 -8 -1 -8 -4 -4 -13 -14 -25 -6 -8 -12 -13
-29 -7 -253 -9 -6 -23 -25 -7 -9 -7 -23 -2 -2 -2 -2 -3 -14 -68 -82 -18 -29 -24 -17 -13 -4 -3 -42 -39 -30 -0 -0 -0 -0 -23 -6 -8 -3 -67 -39 -41 -35 -27 -17
-74 -58 -20 -8 -1 -7 -11 -3 -3 -4 -4 -2 -2 -3 -6 -5 -7 -55 -87 -23 -26 -14 -12 -8 -6 -6 -15 -10 -36 -35 -34 -0 -0 -26 -16 -0 -0 -0 -43 -34 -8 -8 -13
-19 -37 -48 -24 -17 -4 -3 -2 -4 -6 -4 -4 -1 -3 -9 -3 -12 -178 -29 -32 -14 -21 -13 -17 -58 -9 -23 -80 -31 -0 -0 -0 -0 -0 -0 -0 -0 -0 -0 -21 -4 -11 -5
-10 -4 -8 -5 -3 -2 -3 -3 -5 -5 -5 -18 -5 -4 -2 -7 -30 -88 -0 -14 -16 -19 -22 -0 -0 -38 -0 -0 -42 -1 -5 -0 -0 -0 -0 -0 -0 -0 -0 -0 -0 -0 -0
-1 -1 -0 -1 -1 -1 -1 -5 -1 -1 -2 -1 -5 -5 -8 -15 -25 -0 -0 -56 -42 -35 -24 -34 -0 -0 -0 -0 -0 -35 -19 -0 -0 -0 -0 -0 -0 -0 -0 -0 -0 -0 -0
-0 -1 -0 -0 -0 -2 -0 -0 -0 -0 -0 -0 -0 -2 -8 -35 -74 -0 -0 -0 -184 -20 -28 -0 -0 -0 -0 -0 -0 -0 -0 -0 -0 -0 -0 -0 -0 -0 -0 -0 -0 -0 -41
-0 -0 -0 -0 -1 -13 -11 -0 -0 -1 -0 -50 -1 -0 -5 -7 -0 -0 -0 -0 -23 -4 -0 -0 -0 -0 -0 -0 -0 -0 -0 -0 -0 -0 -0 -0 -0 -0 -0 -0 -147 -181 -172
-0 -0 -0 -1 -23 -0 -0 -0 -0 -78 -21 -56 -56 -0 -0 -0 -0 -0 -0 -0 -0 -0 -0 -0 -0 -0 -0 -0 -0 -0 -0 -0 -1 -0 -0 -0 -0 -28 -198 -142 -71 -99 -19
-3 -0 -0 -9 -66 -0 -0 -0 -0 -0 -0 -0 -42 -0 -0 -0 -0 -0 -0 -0 -0 -0 -0 -0 -0 -0 -0 -0 -0 -0 -0 -0 -2 -0 -0 -0 -0 -0 -0 -0 -0 -0 -28
-0 -0 -14 -149 -0 -0 -0 -0 -0 -0 -0 -0 -0 -0 -0 -0 -0 -0 -0 -0 -0 -0 -0 -0 -0 -0 -0 -0 -0 -0 -0 -0 -0 -0 -0 -0 -0 -0 -0 -0 -0 -0 -31
-0 -3 -16 -2 -0 -0 -0 -0 -0 -0 -0 -0 -0 -0 -0 -0 -0 -0 -0 -0 -0 -0 -1 -0 -0 -0 -0 -0 -0 -0 -0 -0 -0 -0 -0 -0 -0 -0 -0 -0 -0 -0 -0
-3 -0 -2 -2 -0 -0 -0 -0 -0 -0 -0 -0 -0 -0 -0 -0 -0 -0 -0 -0 -0 -0 -0 -0 -0 -0 -0 -0 -0 -0 -0 -0 -0 -0 -0 -0 -0 -0 -0 -0 -0 -0 -0
-29 -0 -3 -0 -0 -0 -0 -0 -0 -0 -0 -0 -0 -0 -0 -0 -0 -0 -0 -0 -0 -0 -0 -0 -0 -0 -0 -0 -0 -0 -0 -0 -0 -0 -0 -0 -0 -0 -0 -0 -0 -0 -0
-0 -3 -0 -0 -0 -0 -0 -0 -0 -0 -0 -0 -0 -0 -0 -0 -0 -0 -0 -0 -0 -0 -0 -0 -16 -0 -0 -0 -0 -0 -0 -0 -0 -0 -0 -0 -0 -0 -0 -0 -0 -0 -0
-10 -6 -36 -53 -18 -0 -0 -0 -0 -0 -0 -0 -0 -0 -0 -0 -0 -0 -0 -0 -0 -5 -0 -0 -0 -0 -0 -0 -0 -0 -0 -0 -0 -0 -0 -0 -0 -0 -1 -1 -15 -15 -0
-7 -13 -12 -11 -30 -9 -6 -10 -0 -1 -10 -0 -0 -0 -0 -0 -3 -8 -11 -4 -0 -0 -0 -0 -0 -0 -0 -0 -7 -13 -0 -0 -0 -6 -20 -8 -10 -8 -0 -10 -8 -8 -13
-0 -0 -0 -0 -0 -0 -0 -0 -0 -0 -3 -0 -0 -0 -0 -0 -5 -4 -9 -11 -19 -11 -0 -0 -13 -13 -18 -14 -12 -17 -29 -23 -0 -13 -11 -8 -11 -9 -20 -9 -6 -16 -0
-0 -0 -0 -0 -0 -0 -0 -93 -0 -8 -0 -0 -0 -15 -6 -1 -2 -4 -7 -13 -12 -27 -16 -10 -9 -6 -12 -12 -13 -10 -16 -45 -0 -0 -0 -21 -29 -0 -8 -6 -6 -17 -16
-0 -0 -0 -0 -0 -0 -0 -4 -5 -40 -54 -75 -121 -50 -58 -45 -22 -21 -7 -4 -5 -9 -8 -8 -9 -3 -9 -10 -16 -39 -0 -0 -0 -0 -2 -0 -0 -0 -0 -0 -15 -11 -28
-12 -0 -0 -0 -0 -0 -0 -33 -73 -97 -110 -0 -57 -0 -10 -33 -29 -10 -8 -4 -3 -5 -17 -4 -15 -13 -11 -6 -14 -0 -0 -0 -0 -0 -17 -20 -8 -12 -16 -3 -2 -6 -13
Wind_Speed
13 15 14 10 11 10 8 6 3 3 1 6 4 10 5 5 6 5 6 3 2 6 5 4 4 2 4 4 5 4 3 2 2 2 3 2 1 5 10 7 5 5 4
13 11 14 14 13 13 9 8 7 8 6 8 13 9 3 4 5 5 6 6 6 8 5 7 4 3 2 3 3 4 5 5 2 4 3 1 3 5 5 9 2 6 6
12 12 14 14 13 12 11 10 10 10 12 9 4 5 6 7 6 6 7 7 6 4 4 13 4 2 3 3 2 3 4 4 4 2 4 4 4 3 4 5 3 5 5
21 14 13 14 12 13 10 12 11 7 9 8 8 8 9 8 8 8 9 8 6 7 7 6 5 5 6 4 4 0 4 3 3 3 3 3 2 2 3 2 1 4 4
6 9 6 2 10 12 9 7 9 9 8 9 9 10 10 9 9 9 9 7 8 8 7 5 6 5 7 3 2 2 0 2 3 2 2 1 2 1 0 1 1 2 4
9 9 6 10 13 10 8 7 8 9 11 9 10 10 10 9 13 13 11 8 7 7 7 6 6 6 4 3 3 5 2 2 2 2 1 1 2 1 1 1 1 1 2
6 8 17 9 10 11 9 9 10 12 12 12 12 12 12 12 13 9 15 11 8 8 9 7 4 4 4 5 5 7 6 4 3 2 2 2 2 3 3 3 3 2 2
2 3 4 5 8 8 9 9 10 10 11 11 12 13 12 12 14 13 12 10 8 8 6 6 6 6 4 3 6 4 5 7 6 4 7 5 5 5 4 2 2 2 4
5 5 5 5 6 6 8 10 10 10 11 11 12 13 14 13 13 16 11 10 8 7 6 6 4 5 4 1 6 8 8 7 8 13 12 9 9 9 7 2 3 1 2
7 6 5 4 5 6 7 8 9 9 10 9 11 13 16 15 12 14 13 9 7 7 8 7 10 9 6 3 4 5 6 8 7 5 4 6 6 6 9 6 3 3 1
8 8 7 5 5 6 7 5 6 7 9 10 10 11 13 15 13 13 16 11 8 6 6 6 5 6 8 7 3 2 2 7 10 7 5 2 3 4 3 4 5 4 4
9 8 6 6 4 3 4 5 5 5 7 8 10 10 9 12 11 11 9 7 3 5 5 6 7 6 9 10 8 9 14 11 6 5 4 2 3 3 2 2 4 5 4
10 6 5 3 3 3 3 4 3 2 3 3 5 7 7 4 5 8 5 3 6 9 7 11 13 15 13 10 11 12 8 5 6 7 4 2 2 3 2 0 2 3 3
9 6 3 4 4 3 2 2 2 3 4 3 2 2 2 4 5 4 6 9 16 14 16 8 12 14 12 8 7 8 5 3 4 2 3 3 1 3 3 2 3 3 3
7 4 5 4 5 5 5 5 3 1 2 4 3 3 2 3 2 5 8 7 8 11 13 8 7 7 8 8 7 5 4 3 2 1 2 2 1 3 3 3 3 3 2
5 3 4 4 5 3 4 4 10 5 8 7 5 6 3 11 14 13 15 17 14 11 9 10 9 8 8 6 5 4 0 6 5 4 3 3 4 3 3 3 3 2 3
5 3 4 3 3 4 3 3 2 4 15 16 9 9 10 14 20 19 18 15 13 10 11 8 9 8 8 6 3 2 1 3 5 5 4 4 3 3 4 4 4 3 3
3 5 3 4 5 6 5 5 5 4 6 6 13 10 15 16 16 17 16 13 9 7 7 8 6 7 7 6 4 3 4 3 3 4 5 4 4 4 3 4 4 3 3
4 3 3 5 6 8 8 8 7 7 8 8 8 10 12 14 16 14 13 9 8 7 5 5 5 5 4 5 5 4 4 3 3 4 3 3 2 4 0 4 2 1 1
4 4 6 8 10 10 8 8 7 6 7 7 7 7 6 7 7 6 5 6 6 6 6 6 5 5 5 5 5 4 4 3 4 4 3 2 2 3 2 3 2 3 1
3 3 5 7 8 10 11 10 9 9 8 7 6 7 10 9 8 8 8 8 8 7 5 5 5 5 4 5 5 5 5 4 4 5 3 3 1 3 2 2 1 1 3
4 2 4 4 2 7 8 7 11 10 11 10 9 9 11 6 8 9 9 9 8 7 5 6 7 6 5 4 5 5 5 5 4 4 4 5 4 3 1 2 1 2 2
5 6 5 6 5 5 5 4 4 3 7 9 9 9 10 10 5 6 4 8 8 8 7 6 5 5 5 4 3 4 6 6 4 3 4 4 3 1 3 2 1 4 5
7 7 9 10 8 5 4 2 5 9 9 9 7 8 9 7 7 7 7 6 5 6 6 6 6 9 7 6 5 5 4 8 6 4 4 4 4 2 2 1 1 4 6
8 6 8 8 8 4 7 6 3 7 7 6 5 5 5 6 5 5 6 6 5 6 6 4 4 5 10 8 3 6 10 12 10 8 4 3 5 1 0 4 3 3 8
7 5 5 2 3 5 4 3 4 5 5 4 4 4 4 5 6 4 4 5 4 3 4 3 6 6 5 3 5 16 12 14 9 9 5 5 4 1 3 4 2 1 3
Wind_Direction
187 180 186 192 195 212 217 223 173 334 337 123 23 281 213 185 197 193 267 321 314 273 257 261 258 273 292 357 341 338 324 88 14 335 126 220 286 81 47 354 152 130 121
187 179 193 184 193 196 203 214 181 167 239 222 189 209 228 243 219 194 237 261 200 240 274 272 244 232 205 254 280 326 333 339 7 319 331 37 119 101 133 211 104 116 103
201 189 187 184 191 198 195 203 208 194 201 233 210 201 223 239 233 217 212 245 243 204 211 267 203 270 304 270 311 327 333 343 325 353 306 14 76 71 71 59 14 118 101
223 185 196 188 192 196 203 188 214 213 204 213 215 213 225 220 223 228 228 218 247 258 219 252 210 227 243 265 265 265 309 309 310 333 339 7 37 57 96 139 70 136 135
149 221 153 199 193 206 209 204 192 210 218 216 225 220 223 236 237 225 232 210 215 247 254 274 212 190 168 143 223 259 118 306 333 354 337 5 39 35 289 313 343 175 128
20 342 233 179 242 218 210 212 204 211 211 217 221 227 227 227 234 226 214 220 200 221 248 268 265 218 212 119 75 81 102 241 276 287 107 269 274 250 251 263 331 53 150
171 161 249 169 215 223 217 219 215 218 218 217 217 220 227 230 250 232 212 215 206 212 219 235 251 247 166 150 105 112 105 116 68 340 232 24 61 6 6 17 17 63 60
236 216 312 305 261 242 230 232 232 228 221 221 222 224 224 230 211 204 211 216 208 216 232 226 223 247 276 247 147 160 144 64 24 346 72 67 59 11 1 284 325 53 102
239 264 254 231 254 262 251 245 231 229 232 230 230 224 223 230 203 196 189 209 220 216 220 236 299 246 88 219 200 174 125 108 73 73 89 92 69 48 28 351 35 67 120
328 303 299 319 287 270 263 256 251 242 238 235 236 234 231 225 216 199 197 206 212 222 226 116 53 95 119 54 240 194 162 151 136 129 114 79 61 50 41 49 48 48 73
300 287 263 278 284 282 278 271 257 244 245 247 244 240 237 241 227 202 198 220 212 225 185 150 101 91 106 96 68 15 116 119 104 94 95 75 73 62 51 33 24 60 35
282 298 268 263 252 255 315 306 282 268 257 253 251 249 242 236 243 185 211 234 295 195 118 90 108 99 87 84 79 99 98 100 102 94 77 66 57 68 21 71 59 65 75
278 289 278 198 140 83 347 330 290 259 261 298 289 266 273 66 86 132 143 150 98 106 103 103 107 99 92 80 71 61 65 96 119 107 87 275 150 152 154 255 137 115 129
287 280 223 167 139 126 95 46 319 311 296 248 242 52 49 127 127 112 115 98 97 100 111 95 96 91 87 88 80 78 76 50 60 75 136 274 267 185 188 189 161 183 161
293 273 151 163 205 116 65 23 330 343 331 318 306 127 163 161 115 153 141 131 127 126 119 110 101 99 100 97 93 97 122 115 109 212 150 196 66 77 67 43 21 358 59
283 177 179 187 175 146 139 122 55 33 9 331 271 110 49 93 95 94 97 96 98 124 111 114 109 105 100 91 94 111 207 127 158 134 106 73 82 78 55 27 12 14 55
280 186 171 172 120 119 109 103 95 59 56 37 43 102 103 121 107 107 102 93 92 105 107 112 115 118 119 123 133 116 125 37 86 89 86 78 59 78 48 55 43 40 48
193 179 164 143 129 124 117 98 83 75 77 60 36 75 87 98 102 102 99 94 83 68 99 109 115 140 150 160 163 128 96 83 80 91 78 59 66 62 68 70 36 30 12
185 186 163 127 144 116 115 104 94 95 97 98 97 74 71 74 75 69 78 97 108 107 102 114 155 192 173 118 111 128 120 134 117 88 88 91 63 102 152 139 142 139 142
193 226 165 157 143 131 122 116 110 106 105 107 108 104 109 103 104 102 110 123 138 150 172 191 195 122 95 100 107 126 122 115 128 145 150 131 65 59 143 117 127 196 212
180 167 174 166 158 145 142 147 142 138 128 131 137 159 173 153 154 162 166 179 198 183 151 124 115 118 145 154 159 170 173 152 121 120 128 110 251 152 157 204 223 119 94
132 153 143 162 125 140 150 156 152 158 152 156 161 181 207 202 197 184 191 165 155 145 144 149 149 163 163 173 175 152 136 139 147 152 157 157 184 184 160 196 250 197 173
132 114 99 101 100 89 81 79 81 128 167 149 158 173 198 232 163 135 115 126 143 146 149 152 159 156 161 178 172 172 174 153 112 78 160 163 174 88 28 338 27 94 84
126 129 122 110 89 60 49 321 245 215 133 162 182 186 170 144 141 142 133 138 146 145 166 169 168 169 172 174 180 183 125 128 123 94 18 25 104 152 269 100 287 101 126
71 74 120 122 131 162 194 240 76 112 120 87 63 59 55 96 97 141 147 149 158 154 165 169 173 195 168 190 166 113 107 123 126 146 122 68 79 58 47 326 44 2 126
76 77 75 1 237 147 128 194 152 130 131 141 146 139 176 174 158 157 143 144 155 123 111 122 71 38 14 340 148 137 135 130 121 102 105 141 181 327 45 6 202 271 97